Weather History for Aspen, CO

Change the Weather History Date:

Friday, February 28, 2014

  Actual Average Record
Temperature  
Mean Temperature 38 °F 26 °F  
Max Temperature 45 °F 38 °F 54 °F (1986)
Min Temperature 31 °F 13 °F -5 °F (1998)
Degree Days  
Heating Degree Days 27 39  
Month to date heating degree days 1057 1198  
Since 1 July heating degree days 6131 6319  
Cooling Degree Days 0 0  
Month to date cooling degree days 0 0  
Year to date cooling degree days 0 0  
Moisture  
Dew Point 24 °F    
Average Humidity 61    
Maximum Humidity 92    
Minimum Humidity 29    
Precipitation  
Precipitation T in 0.05 in 0.28 in (2004)
Month to date precipitation 0.37 1.21  
Year to date precipitation 2.78 2.24  
Sea Level Pressure  
Sea Level Pressure 29.73 in    
Wind  
Wind Speed 5 mph (NNE)    
Max Wind Speed 20 mph    
Max Gust Speed 23 mph    
Visibility 10 miles    
Events Snow    
T = Trace of Precipitation, MM = Missing Value Source: NWS Daily Summary

Daily Weather History Graph

Daily Weather History Graph

Search for Another Location

Airport:

Trip Planner

Search our weather history database for the weather conditions in past years. The results will help you decide how hot, cold, wet, or windy it might be!

Date:

Astronomy

Feb. 28, 2014 Rise Set
Actual Time 6:41 AM MST 5:58 PM MST
Civil Twilight 6:14 AM MST 6:25 PM MST
Nautical Twilight 5:43 AM MST 6:56 PM MST
Astronomical Twilight 5:12 AM MST 7:27 PM MST
Moon 5:58 AM MST (2/28) 5:39 PM MST (2/28)
Length of Visible Light 12h 11m
Length of Day
11h 17m
Waning Crescent, 0% of the Moon is Illuminated
Feb 28
Waning Crescent
Mar 1
New
Mar 8
First Quarter
Mar 16
Full
Mar 23
Last Quarter

Hourly Weather History & Observations

Time (MST) Temp. Windchill Dew Point Humidity Pressure Visibility Wind Dir Wind Speed Gust Speed Precip Events Conditions
12:22 AM 33.1 °F 28.7 °F 28.9 °F 85% 29.75 in 10.0 mi NNE 4.6 mph - N/A   Overcast
12:53 AM 32.0 °F 27.5 °F 28.9 °F 88% 29.60 in 9.0 mi North 4.6 mph - 0.00 in   Overcast
1:06 AM 32.0 °F - 28.9 °F 88% 29.77 in 10.0 mi Calm Calm - N/A   Overcast
1:15 AM 32.0 °F - 28.9 °F 88% 29.77 in 10.0 mi Calm Calm - N/A   Overcast
1:53 AM 30.9 °F - 28.0 °F 89% 29.62 in 10.0 mi Calm Calm - N/A   Overcast
2:53 AM 32.0 °F 28.7 °F 28.0 °F 85% 29.64 in 10.0 mi SW 3.5 mph - 0.00 in Snow Light Snow
3:53 AM 30.9 °F 27.5 °F 28.0 °F 89% 29.65 in 10.0 mi SSW 3.5 mph - 0.00 in   Overcast
4:53 AM 32.0 °F - 28.0 °F 85% 29.70 in 9.0 mi Calm Calm - 0.00 in Snow Light Snow
5:49 AM 30.2 °F 23.4 °F 26.6 °F 86% 29.82 in 2.5 mi North 6.9 mph - 0.00 in Snow Light Snow
5:53 AM 30.9 °F 26.2 °F 28.0 °F 89% 29.73 in 3.0 mi North 4.6 mph - 0.00 in Snow Light Snow
6:39 AM 30.9 °F - 27.0 °F 85% 29.83 in 10.0 mi Calm Calm - 0.00 in   Overcast
6:53 AM 30.9 °F - 27.0 °F 85% 29.75 in 10.0 mi Calm Calm - 0.00 in   Overcast
6:55 AM 30.9 °F - 27.0 °F 85% 29.84 in 10.0 mi Calm Calm - N/A   Overcast
7:53 AM 32.0 °F - 26.1 °F 79% 29.78 in 10.0 mi Calm Calm - 0.00 in   Scattered Clouds
8:53 AM 35.1 °F - 25.0 °F 67% 29.78 in 10.0 mi Calm Calm - N/A   Mostly Cloudy
9:53 AM 36.0 °F - 21.0 °F 55% 29.77 in 10.0 mi Calm Calm - N/A   Mostly Cloudy
10:53 AM 41.0 °F 39.0 °F 16.0 °F 36% 29.76 in 10.0 mi NE 3.5 mph - N/A   Mostly Cloudy
11:00 AM 41.0 °F 39.0 °F 16.0 °F 36% 29.90 in 10.0 mi Variable 3.5 mph - N/A   Scattered Clouds
11:53 AM 43.0 °F 38.2 °F 17.1 °F 35% 29.73 in 10.0 mi NNE 8.1 mph - N/A   Scattered Clouds
12:53 PM 43.0 °F 39.5 °F 14.0 °F 31% 29.71 in 10.0 mi North 5.8 mph - N/A   Clear
1:53 PM 43.0 °F 38.2 °F 12.9 °F 30% 29.70 in 10.0 mi NNW 8.1 mph - N/A   Mostly Cloudy
2:53 PM 42.1 °F 38.4 °F 14.0 °F 32% 29.70 in 10.0 mi North 5.8 mph - N/A   Overcast
3:53 PM 41.0 °F 35.2 °F 16.0 °F 36% 29.71 in 10.0 mi South 9.2 mph - N/A   Overcast
4:53 PM 37.9 °F 29.6 °F 23.0 °F 55% 29.73 in 10.0 mi South 13.8 mph - N/A   Overcast
5:53 PM 37.9 °F 30.9 °F 23.0 °F 55% 29.73 in 10.0 mi SE 10.4 mph - N/A   Overcast
6:53 PM 37.0 °F 29.8 °F 24.1 °F 59% 29.73 in 10.0 mi South 10.4 mph - N/A   Overcast
7:53 PM 36.0 °F 33.3 °F 25.0 °F 64% 29.73 in 10.0 mi WNW 3.5 mph - N/A   Overcast
8:53 PM 35.1 °F 32.2 °F 26.1 °F 70% 29.73 in 10.0 mi SSW 3.5 mph - N/A   Overcast
9:53 PM 35.1 °F - 26.1 °F 70% 29.68 in 10.0 mi Calm Calm - N/A   Overcast
10:53 PM 36.0 °F 33.3 °F 27.0 °F 70% 29.63 in 10.0 mi Variable 3.5 mph - 0.00 in   Overcast
11:53 PM 37.9 °F 32.7 °F 28.0 °F 68% 29.58 in 10.0 mi ESE 6.9 mph - 0.00 in   Overcast